POPACS 3

Last updated on Wed Oct 29 2025 00:03:53 GMT+0000 (Coordinated Universal Time)

1 39270U 13055F 25300.92003722 .00010422 00000+0 25558-3 0 9996 2 39270 81.0007 120.0615 0573363 54.9055 310.4517 14.50797784604811
UTC large
Height (km)
Speed (km/s)
/
Latitude / Longitude
Inclination (degrees)
Orbital Period (minutes)
Azimuth
Elevation
Range (km)
Doppler Factor

Next 0 passes for location: London (51.5072 / 0.1276)

Sorry there are no passes over London.